Date String (YYYY-MM-DD hh:mm:ss) UTC,Instrument flags,absolute air pressure of the measurement (hPa),sample flow rate (lpm),inlet stack bypass flow (lpm),air temperature of the measurement (°C),ambient temperature measured by the external sensor (°C),aerosol sample conditioner tube jacket temperature (°C),OPC LED temperature (°C),internal box temperature (°C),relative humidity of the measurement (%),span deviation,mass concentration of particles derived from Lorenz-Mie calculation of OPC scattering (μg/m³),mass concentration of particles derived from Lorenz-Mie calculation of OPC scattering (μg/m³),mass concentration of particles derived from Lorenz-Mie calculation of OPC scattering (μg/m³)
DateTimeUTC,F1_M11,P_M11,Q1_M11,Q2_M11,T1_M11,T2_M11,T3_M11,T4_M11,T5_M11,U1_M11,ZSPAN_M11,X2_M11,X0_M11,X1_M11
2024-01-25 21:00:00,SystemResetWarning,0824.9,4.99,000.00,024.3,023.6,000.0,032.6,025.5,12.8,0000.0,0004.61,0008.37,0004.34
2024-01-25 21:01:00,SystemResetWarning,0824.9,4.99,000.00,024.3,023.6,000.0,032.6,025.5,12.8,0000.0,0004.64,0008.30,0004.36
2024-01-25 21:02:00,SystemResetWarning,0824.9,4.99,000.00,024.3,023.6,000.0,032.6,025.6,12.9,0000.0,0004.64,0008.32,0004.37
2024-01-25 21:03:00,SystemResetWarning,0824.9,5.00,000.00,024.3,023.6,000.0,032.6,025.6,13.2,0000.0,0004.61,0008.60,0004.35
2024-01-25 21:04:00,SystemResetWarning,0825.0,5.01,000.00,024.3,023.7,000.0,032.6,025.6,13.2,0000.0,0004.57,0008.59,0004.33
2024-01-25 21:05:00,SystemResetWarning,0824.9,5.00,000.00,024.3,023.7,000.0,032.6,025.7,13.2,0000.0,0004.55,0008.58,0004.30
2024-01-25 21:06:00,SystemResetWarning,0824.9,5.00,000.00,024.3,023.7,000.0,032.6,025.7,13.4,0000.0,0004.56,0008.63,0004.30
2024-01-25 21:07:00,SystemResetWarning,0824.9,5.00,000.00,024.3,023.7,000.0,032.6,025.7,13.5,0000.0,0004.57,0008.86,0004.31
2024-01-25 21:08:00,SystemResetWarning,0824.9,5.00,000.00,024.4,023.7,000.0,032.6,025.7,13.6,0000.0,0004.59,0008.95,0004.33
2024-01-25 21:09:00,SystemResetWarning,0824.9,5.00,000.00,024.4,023.7,000.0,032.6,025.7,13.5,0000.0,0004.61,0009.02,0004.36
2024-01-25 21:10:00,SystemResetWarning,0825.0,5.00,000.00,024.4,023.7,000.0,032.6,025.7,13.5,0000.0,0004.66,0008.78,0004.38
2024-01-25 21:11:00,SystemResetWarning,0825.0,5.00,000.00,024.4,023.7,000.0,032.7,025.7,13.3,0000.0,0004.70,0009.47,0004.41
2024-01-25 21:12:00,SystemResetWarning,0825.0,5.00,000.00,024.4,023.7,000.0,032.7,025.7,13.4,0000.0,0004.72,0009.57,0004.45
2024-01-25 21:13:00,SystemResetWarning,0825.0,5.01,000.00,024.4,023.8,000.0,032.7,025.7,13.3,0000.0,0004.77,0009.93,0004.50
2024-01-25 21:14:00,SystemResetWarning,0825.1,5.00,000.00,024.4,023.8,000.0,032.7,025.7,13.3,0000.0,0004.84,0009.68,0004.58
2024-01-25 21:15:00,SystemResetWarning,0825.1,5.00,000.00,024.4,023.8,000.0,032.7,025.7,13.3,0000.0,0004.90,0010.05,0004.63
2024-01-25 21:16:00,SystemResetWarning,0825.1,5.00,000.00,024.4,023.8,000.0,032.7,025.7,13.3,0000.0,0004.97,0010.15,0004.71
2024-01-25 21:17:00,SystemResetWarning,0825.1,4.99,000.00,024.4,023.8,000.0,032.7,025.8,13.2,0000.0,0005.02,0010.23,0004.75
2024-01-25 21:18:00,SystemResetWarning,0825.1,5.00,000.00,024.5,023.8,000.0,032.7,025.9,13.2,0000.0,0005.09,0011.14,0004.80
2024-01-25 21:19:00,SystemResetWarning,0825.1,5.01,000.00,024.5,023.9,000.0,032.7,025.9,13.3,0000.0,0005.19,0011.59,0004.86
2024-01-25 21:20:00,SystemResetWarning,0825.1,5.01,000.00,024.5,023.9,000.0,032.7,025.9,13.4,0000.0,0005.28,0011.65,0004.93
2024-01-25 21:21:00,SystemResetWarning,0825.0,5.00,000.00,024.5,023.9,000.0,032.7,026.0,13.2,0000.0,0005.37,0011.85,0005.01
2024-01-25 21:22:00,SystemResetWarning,0825.1,5.00,000.00,024.5,023.9,000.0,032.8,026.0,13.0,0000.0,0005.46,0011.84,0005.09
2024-01-25 21:23:00,SystemResetWarning,0825.1,4.99,000.00,024.6,023.9,000.0,032.8,026.0,13.0,0000.0,0005.55,0012.54,0005.15
2024-01-25 21:24:00,SystemResetWarning,0825.1,4.99,000.00,024.6,024.0,000.0,032.8,026.0,13.1,0000.0,0005.64,0012.38,0005.22
2024-01-25 21:25:00,SystemResetWarning,0825.1,5.00,000.00,024.6,024.0,000.0,032.8,026.0,13.1,0000.0,0005.71,0012.49,0005.29
2024-01-25 21:26:00,SystemResetWarning,0825.1,5.00,000.00,024.6,024.0,000.0,032.8,026.0,12.8,0000.0,0005.83,0012.66,0005.36
2024-01-25 21:27:00,SystemResetWarning,0825.1,5.01,000.00,024.6,024.0,000.0,032.8,026.0,12.6,0000.0,0005.89,0012.72,0005.41
2024-01-25 21:28:00,SystemResetWarning,0825.1,5.01,000.00,024.6,024.0,000.0,032.8,026.0,12.6,0000.0,0005.94,0012.72,0005.46
2024-01-25 21:29:00,SystemResetWarning,0825.1,5.00,000.00,024.6,024.0,000.0,032.8,026.0,12.5,0002.2,0006.02,0012.38,0005.52
2024-01-25 21:30:00,SystemResetWarning,0825.1,4.99,000.00,024.6,023.9,000.0,032.8,025.9,12.6,0004.0,0006.10,0013.04,0005.58
2024-01-25 21:31:00,SystemResetWarning,0825.1,4.99,000.00,024.6,023.9,000.0,032.9,026.0,12.5,0004.0,0006.19,0014.86,0005.66
2024-01-25 21:32:00,SystemResetWarning,0825.1,4.99,000.00,024.6,023.9,000.0,032.9,025.9,12.5,0004.1,0006.27,0015.36,0005.74
2024-01-25 21:33:00,SystemResetWarning,0825.1,5.01,000.00,024.6,023.9,000.0,032.9,025.9,12.6,0003.6,0006.34,0015.49,0005.82
2024-01-25 21:34:00,SystemResetWarning,0825.1,5.01,000.00,024.6,023.9,000.0,032.9,025.9,12.6,0003.1,0006.45,0015.25,0005.90
2024-01-25 21:35:00,SystemResetWarning,0825.2,5.00,000.00,024.6,023.9,000.0,032.9,025.9,12.4,0002.6,0006.53,0015.19,0005.97
2024-01-25 21:36:00,SystemResetWarning,0825.2,5.00,000.00,024.6,024.0,000.0,032.9,025.9,12.3,0002.3,0006.63,0015.42,0006.03
2024-01-25 21:37:00,SystemResetWarning,0825.2,5.00,000.00,024.6,024.0,000.0,032.9,026.0,12.3,0002.0,0006.71,0015.32,0006.07
2024-01-25 21:38:00,SystemResetWarning,0825.1,5.00,000.00,024.6,024.0,000.0,032.9,026.0,12.4,0001.8,0006.75,0015.34,0006.12
2024-01-25 21:39:00,SystemResetWarning,0825.2,5.00,000.00,024.6,024.0,000.0,032.9,026.0,12.4,0002.6,0006.80,0015.52,0006.17
2024-01-25 21:40:00,SystemResetWarning,0825.2,5.00,000.00,024.6,024.0,000.0,032.9,026.0,12.4,0002.3,0006.83,0015.66,0006.19
2024-01-25 21:41:00,SystemResetWarning,0825.2,5.00,000.00,024.7,024.0,000.0,032.9,026.0,12.4,0002.8,0006.81,0015.10,0006.19
2024-01-25 21:42:00,SystemResetWarning,0825.2,5.00,000.00,024.7,024.1,000.0,032.9,026.0,12.5,0002.5,0006.81,0014.14,0006.18
2024-01-25 21:43:00,SystemResetWarning,0825.2,5.00,000.00,024.7,024.1,000.0,032.9,026.1,12.4,0002.3,0006.79,0013.52,0006.17
2024-01-25 21:44:00,SystemResetWarning,0825.3,5.00,000.00,024.7,024.1,000.0,032.9,026.1,12.5,0002.5,0006.76,0013.05,0006.14
2024-01-25 21:45:00,SystemResetWarning,0825.3,5.01,000.00,024.7,024.1,000.0,033.0,026.1,12.4,0002.6,0006.71,0013.65,0006.10
2024-01-25 21:46:00,SystemResetWarning,0825.2,5.00,000.00,024.7,024.1,000.0,033.0,026.1,12.1,0002.7,0006.63,0013.75,0006.05
2024-01-25 21:47:00,SystemResetWarning,0825.3,4.99,000.00,024.7,024.1,000.0,033.0,026.1,12.3,0002.7,0006.60,0014.70,0006.02
2024-01-25 21:48:00,SystemResetWarning,0825.2,5.00,000.00,024.7,024.1,000.0,033.0,026.1,12.0,0002.6,0006.56,0016.15,0005.98
2024-01-25 21:49:00,SystemResetWarning,0825.2,5.01,000.00,024.7,024.1,000.0,033.0,026.1,12.0,0003.6,0006.52,0016.31,0005.92
2024-01-25 21:50:00,SystemResetWarning,0825.2,5.01,000.00,024.7,024.1,000.0,033.0,026.1,12.1,0003.4,0006.46,0016.98,0005.85
2024-01-25 21:51:00,SystemResetWarning,0825.2,5.00,000.00,024.8,024.1,000.0,033.0,026.1,11.8,0003.3,0006.41,0016.78,0005.80
2024-01-25 21:52:00,SystemResetWarning,0825.3,4.99,000.00,024.8,024.1,000.0,033.0,026.1,11.8,0003.0,0006.36,0016.40,0005.75
2024-01-25 21:53:00,SystemResetWarning,0825.2,5.00,000.00,024.8,024.1,000.0,033.0,026.1,11.8,0001.4,0006.27,0015.69,0005.67
2024-01-25 21:54:00,SystemResetWarning,0825.3,5.00,000.00,024.8,024.1,000.0,033.0,026.1,11.7,0000.0,0006.20,0015.72,0005.61
2024-01-25 21:55:00,SystemResetWarning,0825.3,5.01,000.00,024.8,024.1,000.0,033.0,026.1,11.8,0000.0,0006.17,0015.87,0005.56
2024-01-25 21:56:00,SystemResetWarning,0825.3,5.01,000.00,024.8,024.1,000.0,033.0,026.1,11.7,0000.0,0006.10,0014.81,0005.52
2024-01-25 21:57:00,SystemResetWarning,0825.2,4.99,000.00,024.8,024.1,000.0,033.1,026.1,11.8,0000.0,0006.08,0014.90,0005.49
2024-01-25 21:58:00,SystemResetWarning,0825.3,5.00,000.00,024.8,024.1,000.0,033.1,026.1,11.8,0000.0,0006.06,0014.51,0005.45
2024-01-25 21:59:00,SystemResetWarning,0825.3,5.00,000.00,024.8,024.0,000.0,033.1,026.1,12.0,0000.0,0005.97,0013.37,0005.40
